Date String (YYYY-MM-DD hh:mm:ss) UTC,Instrument flags,Ambient pressure (hPa),Sample flow (lpm),Bypass flow (lpm),Sample temperature (°C),Ambient temperature (°C),ASC tube jacket temperature (°C),LED temperature (°C),Box temperature (°C),Sample RH (%),Span deviation,Mass concentration (μg/m³),Mass concentration (μg/m³),Mass concentration (μg/m³)
DateTimeUTC,F1_M11,P_M11,Q1_M11,Q2_M11,T1_M11,T2_M11,T3_M11,T4_M11,T5_M11,U1_M11,ZSPAN_M11,X0_M11,X2_M11,X1_M11
2022-01-26 20:00:00,,0822.9,5.01,0.00,24.0,23.2,00.0,32.9,25.7,08.5,0000.0,0008.04,0005.48,0005.16
2022-01-26 20:01:00,,0822.8,4.99,0.00,23.9,23.1,00.0,32.9,25.7,08.6,0000.0,0007.99,0005.46,0005.17
2022-01-26 20:02:00,,0822.8,4.99,0.00,23.9,23.1,00.0,32.9,25.7,08.6,0000.0,0008.03,0005.48,0005.17
2022-01-26 20:03:00,,0822.7,5.01,0.00,23.9,23.1,00.0,32.9,25.7,08.5,0000.0,0008.08,0005.50,0005.18
2022-01-26 20:04:00,,0822.7,5.01,0.00,23.9,23.1,00.0,32.9,25.7,08.0,0000.0,0008.09,0005.48,0005.15
2022-01-26 20:05:00,,0822.7,4.99,0.00,23.9,23.1,00.0,32.9,25.7,08.1,0000.0,0008.07,0005.42,0005.09
2022-01-26 20:06:00,,0822.8,4.99,0.00,23.9,23.1,00.0,32.9,25.6,08.4,0000.0,0008.03,0005.39,0005.05
2022-01-26 20:07:00,,0822.7,5.02,0.00,23.9,23.1,00.0,32.9,25.6,08.1,0000.0,0007.85,0005.27,0004.96
2022-01-26 20:08:00,,0822.7,4.98,0.00,23.9,23.1,00.0,32.9,25.6,08.1,0000.0,0007.75,0005.18,0004.87
2022-01-26 20:09:00,,0822.7,5.02,0.00,23.9,23.0,00.0,32.8,25.6,08.5,0000.0,0007.86,0005.14,0004.83
2022-01-26 20:10:00,,0822.7,5.00,0.00,23.8,23.0,00.0,32.8,25.6,08.5,0000.0,0008.00,0005.13,0004.82
2022-01-26 20:11:00,,0822.7,4.99,0.00,23.8,23.0,00.0,32.8,25.6,08.6,0000.0,0008.10,0005.10,0004.78
2022-01-26 20:12:00,,0822.7,5.02,0.00,23.8,23.0,00.0,32.8,25.5,08.6,0000.0,0008.10,0005.09,0004.76
2022-01-26 20:13:00,,0822.7,4.99,0.00,23.8,23.0,00.0,32.8,25.5,08.5,0000.0,0008.06,0005.08,0004.76
2022-01-26 20:14:00,,0822.7,5.01,0.00,23.8,23.0,00.0,32.8,25.5,08.4,0000.0,0007.99,0005.05,0004.77
2022-01-26 20:15:00,,0822.7,4.99,0.00,23.8,23.0,00.0,32.8,25.5,08.4,0000.0,0007.94,0005.06,0004.79
2022-01-26 20:16:00,,0822.7,4.99,0.00,23.8,23.0,00.0,32.8,25.5,08.7,0000.0,0007.93,0005.09,0004.83
2022-01-26 20:17:00,,0822.7,5.01,0.00,23.8,23.0,00.0,32.8,25.5,08.6,0000.0,0007.94,0005.12,0004.87
2022-01-26 20:18:00,,0822.7,5.01,0.00,23.8,23.0,00.0,32.8,25.6,08.5,0000.0,0008.12,0005.21,0004.93
2022-01-26 20:19:00,,0822.7,4.99,0.00,23.8,23.0,00.0,32.8,25.5,08.5,0000.0,0008.09,0005.25,0004.97
2022-01-26 20:20:00,,0822.7,5.00,0.00,23.8,23.0,00.0,32.8,25.5,08.6,0000.0,0007.87,0005.22,0004.97
2022-01-26 20:21:00,,0822.7,5.00,0.00,23.8,23.0,00.0,32.8,25.5,08.6,0000.0,0007.67,0005.20,0004.96
2022-01-26 20:22:00,,0822.7,4.99,0.00,23.8,23.0,00.0,32.8,25.5,08.6,0000.0,0007.65,0005.20,0004.96
2022-01-26 20:23:00,,0822.6,5.02,0.00,23.8,23.0,00.0,32.8,25.5,08.4,0000.0,0007.61,0005.19,0004.96
2022-01-26 20:24:00,,0822.7,5.00,0.00,23.8,23.0,00.0,32.8,25.5,08.4,0000.0,0007.57,0005.18,0004.96
2022-01-26 20:25:00,,0822.7,4.99,0.00,23.7,23.0,00.0,32.8,25.5,08.2,0000.0,0007.60,0005.20,0004.98
2022-01-26 20:26:00,,0822.6,4.99,0.00,23.7,22.9,00.0,32.7,25.5,08.2,0000.0,0007.65,0005.25,0005.02
2022-01-26 20:27:00,,0822.6,5.01,0.00,23.7,22.9,00.0,32.7,25.5,08.5,0000.0,0007.75,0005.32,0005.07
2022-01-26 20:28:00,,0822.6,5.00,0.00,23.7,22.9,00.0,32.7,25.4,08.2,0000.0,0008.20,0005.37,0005.11
2022-01-26 20:29:00,,0822.6,4.99,0.00,23.7,22.9,00.0,32.7,25.4,08.4,0000.0,0008.37,0005.39,0005.15
2022-01-26 20:30:00,,0822.6,5.01,0.00,23.7,22.9,00.0,32.7,25.4,08.6,0000.0,0008.65,0005.46,0005.20
2022-01-26 20:31:00,,0822.6,4.99,0.00,23.7,22.9,00.0,32.7,25.4,08.4,0000.0,0008.78,0005.54,0005.26
2022-01-26 20:32:00,,0822.6,4.99,0.00,23.7,22.9,00.0,32.7,25.4,08.5,0000.0,0008.85,0005.61,0005.32
2022-01-26 20:33:00,,0822.6,5.01,0.00,23.7,22.9,00.0,32.7,25.5,08.8,0000.0,0009.02,0005.67,0005.39
2022-01-26 20:34:00,,0822.7,4.99,0.00,23.7,22.9,00.0,32.7,25.5,08.6,0000.0,0009.11,0005.72,0005.42
2022-01-26 20:35:00,,0822.6,5.00,0.00,23.7,22.9,00.0,32.7,25.5,08.3,0000.0,0009.25,0005.77,0005.45
2022-01-26 20:36:00,,0822.6,5.00,0.00,23.7,22.9,00.0,32.7,25.4,08.4,0000.0,0009.35,0005.81,0005.46
2022-01-26 20:37:00,,0822.6,5.00,0.00,23.7,22.9,00.0,32.6,25.4,08.4,0000.0,0009.53,0005.88,0005.51
2022-01-26 20:38:00,,0822.6,5.02,0.00,23.7,23.0,00.0,32.7,25.4,08.4,0000.0,0009.56,0005.88,0005.52
2022-01-26 20:39:00,,0822.6,5.00,0.00,23.7,23.0,00.0,32.6,25.4,08.6,0000.0,0009.22,0005.89,0005.56
2022-01-26 20:40:00,,0822.6,4.99,0.00,23.7,23.0,00.0,32.7,25.5,08.9,0000.0,0009.54,0005.94,0005.60
2022-01-26 20:41:00,,0822.6,5.00,0.00,23.7,23.0,00.0,32.7,25.5,09.0,0000.0,0009.50,0006.00,0005.65
2022-01-26 20:42:00,,0822.6,5.02,0.00,23.7,23.1,00.0,32.7,25.5,09.0,0000.0,0009.54,0006.05,0005.70
2022-01-26 20:43:00,,0822.6,5.00,0.00,23.7,23.1,00.0,32.7,25.5,09.0,0000.0,0009.55,0006.07,0005.73
2022-01-26 20:44:00,,0822.6,5.00,0.00,23.8,23.1,00.0,32.7,25.6,09.2,0000.0,0009.37,0006.07,0005.76
2022-01-26 20:45:00,,0822.7,4.99,0.00,23.8,23.1,00.0,32.7,25.6,09.0,0000.0,0009.29,0006.09,0005.80
2022-01-26 20:46:00,,0822.6,5.01,0.00,23.8,23.1,00.0,32.7,25.6,08.8,0000.0,0009.28,0006.12,0005.85
2022-01-26 20:47:00,,0822.7,4.99,0.00,23.8,23.1,00.0,32.7,25.6,08.6,0000.0,0009.25,0006.14,0005.88
2022-01-26 20:48:00,,0822.7,4.99,0.00,23.8,23.2,00.0,32.7,25.6,08.6,0000.0,0009.13,0006.11,0005.87
2022-01-26 20:49:00,,0822.7,5.00,0.00,23.9,23.2,00.0,32.7,25.7,08.4,0000.0,0009.11,0006.12,0005.87
2022-01-26 20:50:00,,0822.7,5.00,0.00,23.9,23.2,00.0,32.7,25.7,08.3,0000.0,0009.14,0006.09,0005.83
2022-01-26 20:51:00,,0822.8,5.01,0.00,23.9,23.2,00.0,32.7,25.7,08.4,0000.0,0008.65,0006.06,0005.80
2022-01-26 20:52:00,,0822.7,4.99,0.00,23.9,23.2,00.0,32.8,25.7,08.2,0000.0,0008.44,0006.02,0005.76
2022-01-26 20:53:00,,0822.7,5.00,0.00,23.9,23.2,00.0,32.8,25.7,08.3,0000.0,0008.39,0005.95,0005.70
2022-01-26 20:54:00,,0822.8,5.02,0.00,23.9,23.3,00.0,32.8,25.7,08.2,0000.0,0008.39,0005.90,0005.63
2022-01-26 20:55:00,,0822.8,4.99,0.00,24.0,23.3,00.0,32.8,25.8,08.0,0000.0,0008.44,0005.84,0005.55
2022-01-26 20:56:00,,0822.8,4.99,0.00,24.0,23.4,00.0,32.8,25.9,08.1,0000.0,0008.39,0005.77,0005.47
2022-01-26 20:57:00,,0822.8,5.01,0.00,24.0,23.4,00.0,32.8,25.9,08.1,0000.0,0008.30,0005.69,0005.39
2022-01-26 20:58:00,,0822.8,4.99,0.00,24.0,23.4,00.0,32.8,25.9,08.1,0000.0,0008.26,0005.63,0005.33
2022-01-26 20:59:00,,0822.9,5.01,0.00,24.1,23.4,00.0,32.9,25.9,07.8,0000.0,0008.27,0005.56,0005.25
